Location: Gazon
(48.1318°N, 1.2708°W)
Time: 02:17:28
(UTC+00:00)

Cosmos 2151 Rocket - Pass Details

Date: 18 September 2020
Orbit: 617 x 642 km, 82.5° (Epoch: 29 October)

Event Time Altitude Azimuth Distance (km) Brightness Sun altitude
Rises 20:21:51 0° 201° (SSW) 2,902 6.9 -21.8°
Reaches altitude 10° 20:24:06 10° 206° (SSW) 2,003 6.1 -22.1°
Maximum altitude 20:28:27 52° 283° (WNW) 788 4.4 -22.7°
Drops below altitude 10° 20:32:52 10° 1° (N) 2,034 6.6 -23.4°
Sets 20:35:11 0° 6° (N) 2,952 7.4 -23.7°
